STARLINK-32124, 60298

Orbit data source: Space-Track

STARLINK-32124, 60298 is a payload satellite owned by SpaceX/Seattle (US) in LEO that was launched on Sun, 28 Jul 2024 UTC via an FALCON 9 launch vehicle from the Air Force Eastern Test Range (AFETR). Payload-class satellites include a variety of spacecraft equipped with specific instruments for various scientific and technological missions. These include communications satellites like Starlink; space stations such as the ISS; scientific satellites like the Hubble; Earth observation satellites from companies like Planet Labs, Umbra, and HawkEye 360; GPS; miniature CubeSats for education and research; and military/defense satellites.

Loading next visibility...
Identifier
60298, 2024-132W
Orbit
LEO
Country
Flag of USUS
Related business
Manufacturer
SpaceX/Seattle
Mission
Operational spacecraft
Bus & Motor
STARLINK V2M, Unknown motor
Mass
730 kg wet, ~700 kg dry
Launch date (UTC)
2024-07-28 (1 year ago)
Launch vehicle
FALCON 9
Launch site
Air Force Eastern Test Range (AFETR)
Object type
Payload
Rocket body
Debris
Shape & HBR
Unknown
Radar Cross Section
Large (>1 m²)

Expand to show TLE details & history
Last TLE update: 1 day ago

TLE from 1 day ago
0 STARLINK-32124
1 60298U 24132W   25258.42642987  .00004114  00000-0  15096-3 0  9995
2 60298  53.1598 146.7369 0001287  79.6425 280.4721 15.30194695 64721
Epoch: 2025-09-15T10:14Z
TLE epoch observation values (Epoch: 2025-09-15T10:14:03.54Z)
Latitude
-0.00002°
Longitude
-1.40912°
Altitude
475.97 km
Speed
7.629 km/s
True Right ascension
09h 46m 56s
True Declination
0° 00' 00"
Sunlit
Object was in daylight at epoch
Visualization orbit readout
Latitude
Unknown
Longitude
Unknown
Altitude
Unknown
Speed
Unknown
Apparent Right ascension
Unknown
Apparent Declination
Unknown
Sunlit
N/A
Visualization observer readout
Local Sidereal Time
02:26:18
Azimuth
Unknown
Elevation
Unknown
Doppler factor
Unknown
Orbital elements
Apogee altitude
476.369 km
Perigee altitude
474.605 km
Semi-major axis
6,853.624 km
Eccentricity
0.00013
Inclination
53.1598°
RAAN
146.7369°
Arg. of periapsis
79.6425°
True anomaly
280.4576°
Mean anomaly
280.4721°
Eccentric anomaly
280.46485°
Mean motion
3.82528 °/min
Orbital period
94.11 mins
BSTAR
0.00015096
Loading maneuver chart data...
Computing Atmospheric mass density...
Loading historical data...
Loading historical data...
Loading historical data...
Loading historical data...
Loading historical data...
Loading historical data...
Loading historical data...

Documentation

Showing up to 5 results
|